NBT232 LIPZ-EVRA

Flight info

Callsign NBT232
Flight time N/A
Altitude 18000
Route ROSKA M859 MONFA/N0475F410 DCT KUBUD DCT GIMIX DCT TIVAP DCT UPEGU DCT ENORU DCT VAGSA DCT UVIVI DCT SORIX DCT BOKSU DCT GUNTA
Aircraft B789/H-SDE1E2E3FGHIJ2J3J4J5M1RWXY/LB1D1

Departure

Time N/A
Airport Venice Marco Polo Airport (LIPZ)

Arrival

Time 2026-05-04 00:53
Airport Riga International Airport (EVRA)
Time Latitude Longitude Altitude Speed Heading
2026-05-04 00:21 54.23467 22.90330 40959 ft 516 kts 50°
2026-05-04 00:21 54.25735 22.95170 40957 ft 516 kts 50°
2026-05-04 00:21 54.30914 23.03488 40978 ft 511 kts 29°
2026-05-04 00:22 54.37422 23.08028 40971 ft 505 kts
2026-05-04 00:22 54.44279 23.10283 40950 ft 504 kts
2026-05-04 00:23 54.51168 23.12476 40941 ft 503 kts
2026-05-04 00:23 54.58054 23.14724 40940 ft 503 kts
2026-05-04 00:24 54.64949 23.16954 40937 ft 504 kts
2026-05-04 00:24 54.71845 23.19208 40933 ft 504 kts
2026-05-04 00:25 54.78745 23.21462 40928 ft 504 kts
2026-05-04 00:25 54.85644 23.23730 40926 ft 504 kts
2026-05-04 00:26 54.92544 23.26002 40929 ft 505 kts
2026-05-04 00:26 54.99420 23.28276 40930 ft 506 kts
2026-05-04 00:27 55.06347 23.30574 40924 ft 505 kts
2026-05-04 00:27 55.13258 23.32875 40923 ft 506 kts
2026-05-04 00:28 55.20194 23.35193 40916 ft 508 kts
2026-05-04 00:28 55.25978 23.37132 40920 ft 510 kts
2026-05-04 00:29 55.34084 23.39860 40911 ft 509 kts
2026-05-04 00:29 55.39909 23.41826 40907 ft 508 kts
2026-05-04 00:30 55.43360 23.42996 40898 ft 497 kts
2026-05-04 00:30 55.46709 23.44137 40776 ft 484 kts
2026-05-04 00:30 55.49958 23.45238 40186 ft 482 kts
2026-05-04 00:30 55.53260 23.46354 39557 ft 481 kts
2026-05-04 00:31 55.56548 23.47475 38952 ft 480 kts
2026-05-04 00:31 55.59832 23.48601 38289 ft 479 kts
2026-05-04 00:31 55.63108 23.49719 37451 ft 479 kts
2026-05-04 00:31 55.66360 23.50832 37011 ft 472 kts
2026-05-04 00:32 55.69567 23.51935 36431 ft 468 kts
2026-05-04 00:32 55.72748 23.53028 35901 ft 463 kts
2026-05-04 00:32 55.75898 23.54111 35373 ft 459 kts
2026-05-04 00:32 55.79023 23.55188 34855 ft 455 kts
2026-05-04 00:33 55.82121 23.56259 34327 ft 451 kts
2026-05-04 00:33 55.88539 23.58464 30947 ft 489 kts
2026-05-04 00:33 55.91855 23.59630 30152 ft 484 kts
2026-05-04 00:34 55.95087 23.60768 29770 ft 471 kts
2026-05-04 00:34 55.98281 23.61876 28654 ft 472 kts
2026-05-04 00:34 56.01508 23.62987 27747 ft 471 kts
2026-05-04 00:34 56.04709 23.64109 26974 ft 465 kts
2026-05-04 00:35 56.07872 23.65226 26186 ft 461 kts
2026-05-04 00:35 56.11033 23.66331 24468 ft 472 kts
2026-05-04 00:35 56.14355 23.67477 22395 ft 497 kts
2026-05-04 00:35 56.17747 23.68672 21072 ft 496 kts
2026-05-04 00:36 56.21085 23.69882 20257 ft 483 kts
2026-05-04 00:36 56.24360 23.71044 19180 ft 477 kts
2026-05-04 00:36 56.27595 23.72164 18180 ft 471 kts
2026-05-04 00:36 56.30798 23.73292 17086 ft 464 kts
2026-05-04 00:37 56.33924 23.74418 16492 ft 448 kts
2026-05-04 00:37 56.36874 23.75599 16339 ft 424 kts 13°
2026-05-04 00:37 56.39578 23.77536 15628 ft 416 kts 20°
2026-05-04 00:37 56.42214 23.79675 14962 ft 409 kts 21°
2026-05-04 00:38 56.44739 23.81777 14642 ft 392 kts 21°
2026-05-04 00:38 56.47151 23.83771 14092 ft 382 kts 20°
2026-05-04 00:38 56.49571 23.85740 13367 ft 379 kts 20°
2026-05-04 00:38 56.51960 23.87695 12603 ft 375 kts 20°
2026-05-04 00:39 56.54311 23.89639 11870 ft 372 kts 20°
2026-05-04 00:39 56.56594 23.91534 11825 ft 349 kts 20°
2026-05-04 00:39 56.58741 23.93312 11559 ft 334 kts 19°
2026-05-04 00:39 56.60811 23.95016 11240 ft 322 kts 19°
2026-05-04 00:40 56.62814 23.96671 11001 ft 310 kts 19°
2026-05-04 00:40 56.64775 23.98294 10437 ft 310 kts 19°
2026-05-04 00:40 56.66730 23.99914 9938 ft 308 kts 19°
2026-05-04 00:40 56.68670 24.01528 9573 ft 301 kts 19°
2026-05-04 00:41 56.70534 24.03086 9195 ft 293 kts 18°
2026-05-04 00:41 56.72396 24.04627 8673 ft 293 kts 18°
2026-05-04 00:41 56.74240 24.06161 8175 ft 291 kts 19°
2026-05-04 00:41 56.76074 24.07695 7698 ft 289 kts 19°
2026-05-04 00:42 56.77900 24.09222 7216 ft 287 kts 19°
2026-05-04 00:42 56.79697 24.10726 6988 ft 280 kts 19°
2026-05-04 00:42 56.81431 24.12183 7003 ft 263 kts 19°
2026-05-04 00:42 56.83002 24.13509 6988 ft 244 kts 18°
2026-05-04 00:43 56.84545 24.14794 6986 ft 238 kts 18°
2026-05-04 00:43 56.86108 24.15555 6779 ft 233 kts 357°
2026-05-04 00:43 56.87690 24.15753 6458 ft 229 kts 357°
2026-05-04 00:43 56.89267 24.16004 6122 ft 226 kts 358°
2026-05-04 00:44 56.90825 24.16269 5787 ft 224 kts 358°
2026-05-04 00:44 56.92368 24.16525 5461 ft 221 kts 358°
2026-05-04 00:44 56.93890 24.16772 5141 ft 219 kts 358°
2026-05-04 00:44 56.95404 24.17019 4831 ft 217 kts 358°
2026-05-04 00:45 56.96902 24.17265 4496 ft 215 kts 358°
2026-05-04 00:45 56.98385 24.17510 4182 ft 212 kts 358°
2026-05-04 00:45 56.99850 24.17750 3871 ft 210 kts 358°
2026-05-04 00:45 57.01293 24.17871 3541 ft 203 kts 347°
2026-05-04 00:46 57.02486 24.16888 3472 ft 176 kts 318°
2026-05-04 00:46 57.03366 24.15518 3473 ft 158 kts 311°
2026-05-04 00:46 57.04156 24.14262 3472 ft 145 kts 311°
2026-05-04 00:46 57.04907 24.13062 3477 ft 142 kts 311°
2026-05-04 00:47 57.05692 24.11786 3337 ft 161 kts 311°
2026-05-04 00:47 57.06541 24.10439 3183 ft 162 kts 312°
2026-05-04 00:47 57.07401 24.09072 3019 ft 163 kts 313°
2026-05-04 00:47 57.08260 24.07703 2855 ft 164 kts 313°
2026-05-04 00:48 57.09122 24.06327 2693 ft 164 kts 313°
2026-05-04 00:48 57.09855 24.04790 2451 ft 158 kts 292°
2026-05-04 00:48 57.10011 24.02862 2215 ft 151 kts 264°
2026-05-04 00:48 57.09616 24.01095 1987 ft 152 kts 235°
2026-05-04 00:49 57.08672 24.00277 1919 ft 154 kts 196°
2026-05-04 00:49 57.07601 23.99753 2014 ft 173 kts 200°
2026-05-04 00:49 57.06489 23.99451 1980 ft 150 kts 190°
2026-05-04 00:49 57.05479 23.99301 1981 ft 143 kts 190°
2026-05-04 00:50 57.04504 23.99145 1974 ft 138 kts 191°
2026-05-04 00:50 57.03547 23.98990 1994 ft 138 kts 191°
2026-05-04 00:50 57.02566 23.98827 1846 ft 142 kts 191°
2026-05-04 00:50 57.01590 23.98667 1661 ft 141 kts 190°
2026-05-04 00:51 57.00614 23.98493 1464 ft 141 kts 190°
2026-05-04 00:51 56.99652 23.98334 1284 ft 140 kts 189°
2026-05-04 00:51 56.98682 23.98175 1093 ft 140 kts 188°
2026-05-04 00:51 56.97716 23.98018 891 ft 140 kts 188°
2026-05-04 00:52 56.96962 23.97911 734 ft 142 kts 186°
2026-05-04 00:52 56.96188 23.97776 618 ft 137 kts 186°
2026-05-04 00:52 56.95235 23.97609 422 ft 139 kts 185°
2026-05-04 00:52 56.94265 23.97420 238 ft 141 kts 186°
2026-05-04 00:53 56.93296 23.97274 92 ft 138 kts 184°
2026-05-04 00:53 56.92443 23.97140 52 ft 104 kts 186°
2026-05-04 00:53 56.91899 23.97075 48 ft 49 kts 165°
2026-05-04 00:53 56.91773 23.97178 48 ft 0 kts 152°
2026-05-04 00:58 56.91768 23.97183 46 ft 4 kts 152°
2026-05-04 00:58 56.91731 23.97229 48 ft 9 kts 131°
2026-05-04 00:58 56.91721 23.97371 45 ft 12 kts 63°
2026-05-04 00:59 56.91789 23.97427 46 ft 13 kts
2026-05-04 00:59 56.91903 23.97438 50 ft 18 kts
2026-05-04 00:59 56.92033 23.97448 48 ft 19 kts
2026-05-04 00:59 56.92170 23.97475 51 ft 21 kts
2026-05-04 01:00 56.92318 23.97502 48 ft 22 kts
2026-05-04 01:00 56.92473 23.97530 47 ft 23 kts
2026-05-04 01:00 56.92637 23.97563 49 ft 24 kts
2026-05-04 01:00 56.92805 23.97589 50 ft 24 kts
2026-05-04 01:01 56.92927 23.97606 46 ft 6 kts
2026-05-04 01:01 56.92934 23.97615 45 ft 2 kts 43°
2026-05-04 01:01 56.92949 23.97676 50 ft 7 kts 73°
2026-05-04 01:01 56.92946 23.97739 51 ft 10 kts 97°
2026-05-04 01:02 56.92939 23.97879 50 ft 7 kts 89°
2026-05-04 01:02 56.92945 23.97901 45 ft 1 kts 46°
2026-05-04 01:02 56.92956 23.97904 46 ft 4 kts 11°
2026-05-04 01:02 56.93007 23.97917 49 ft 6 kts
2026-05-04 01:03 56.93024 23.97919 50 ft 1 kts
2026-05-04 01:03 56.93026 23.97919 50 ft 0 kts